Regional Weather Roundup
Issued by NWS

Home | Current Version | Previous Version | Text Only | Print | Product List | Glossary Off
Versions: 1 2 3 4 5 6 7 8 9 10 11 12 13 14 15 16 17 18 19 20 21 22 23 24 25 26 27 28 29 30 31 32 33 34 35 36 37 38 39 40 41 42 43 44 45 46 47 48 49 50

000
ASUS43 KFSD 220702
RWRSD

WEATHER ROUNDUP FOR SOUTH DAKOTA
NATIONAL WEATHER SERVICE SIOUX FALLS SD
100 AM CST SAT NOV 22 2014

NOTE: "FAIR" INDICATES FEW OR NO CLOUDS BELOW 12,000 FEET WITH NO
SIGNIFICANT WEATHER AND/OR OBSTRUCTIONS TO VISIBILITY.


SDZ001>005-009-010-012>017-220800-
NORTHWEST AND NORTH CENTRAL SOUTH DAKOTA

CITY           SKY/WX    TMP DP  RH WIND       PRES   REMARKS
BUFFALO          N/A     33  24  69 W8        29.63F WCI  26
FAITH            N/A     28  23  81 S16       29.73F WCI  16
MOBRIDGE       CLEAR     29  25  85 SE8       29.71F WCI  21
$$

SDZ012>016-024>037-041>051-057-063-072>074-220800-
SOUTHWEST AND SOUTH CENTRAL SOUTH DAKOTA

CITY           SKY/WX    TMP DP  RH WIND       PRES   REMARKS
RAPID CTY ARPT CLEAR     33  21  61 SW3       29.76F
PIERRE         CLEAR     30  26  85 SW10      29.77F WCI  21
CUSTER         CLEAR     24  18  77 W5        29.78F WCI  18
ELLSWORTH AFB  CLEAR     35  23  62 W2        29.75F
PHILIP         CLEAR     31  23  72 CALM      29.78F
PINE RIDGE     CLEAR     16  14  92 CALM      29.81F
WINNER         FAIR      37  26  64 SW8       29.80F
$$

SDZ004>011-016>023-039-040-220800-
NORTHEAST SOUTH DAKOTA

CITY           SKY/WX    TMP DP  RH WIND       PRES   REMARKS
ABERDEEN       CLEAR     22  19  89 S9        29.75F WCI  12
WATERTOWN      PTCLDY    28  25  88 S8        29.77F WCI  20
SISSETON         N/A     37  29  72 NE8       29.72S
$$

SDZ017-020-022-023-036>040-048>070-220800-
SOUTHEAST SOUTH DAKOTA

CITY           SKY/WX    TMP DP  RH WIND       PRES   REMARKS
SIOUX FALLS    PTCLDY    33  28  81 SW12      29.84F WCI  24
HURON          CLEAR     30  27  88 S5        29.79F WCI  25
CHAMBERLAIN    CLEAR     24  24  96 CALM      29.79F
MITCHELL       CLEAR     30  29  96 CALM      29.82F FOG
YANKTON        CLEAR     37  32  81 S8        29.86F
$$

ABBREVIATIONS USED IN REMARKS
   TC - TEMPERATURE IN CELSIUS
  WCI - WIND CHILL INDEX
   HX - HEAT INDEX
  VSB - VISIBILITY




USA.gov is the U.S. government's official web portal to all federal, state and local government web resources and services.